Location: Cz?stochówka
(50.8142°N, 19.0915°E)
Time: 08:33:44
(UTC+00:00)

MOS 1 Rocket - Pass Details

Date: 13 January 2026
Orbit: 608 x 815 km, 97.4° (Epoch: 17 February)

Event Time Altitude Azimuth Distance (km) Brightness Sun altitude
Rises 04:55:06 0° 16° (NNE) 3,098 6.7 -16.0°
Reaches altitude 10° 04:57:30 10° 22° (NNE) 2,142 5.9 -15.7°
Maximum altitude 05:02:02 51° 98° (E) 835 4.1 -15.0°
Drops below altitude 10° 05:06:18 10° 175° (S) 2,017 6.0 -14.3°
Sets 05:08:30 0° 180° (S) 2,899 6.7 -14.0°
